FW2998 Weather Reports


time (UTC)temp
C
wind
direction
speed
KPH
gust
KPH
rain 1hr
cm
rain 24hr
cm
rain mn
cm
humidity
%
barometer
mb
20260903001022 31 0 0.0 0.0 0.00 0.00 0.00 68 1016.8
20260903000524 31 0 0.0 0.0 0.00 0.00 0.00 67 1016.8
20260903000043 31 0 0.0 0.0 0.00 0.00 0.00 67 1016.8
20260902235525 32 0 0.0 0.0 0.00 0.00 0.00 66 1016.8
20260902235023 32 0 0.0 0.0 0.00 0.00 0.00 66 1016.7
20260902234546 32 0 0.0 0.0 0.00 0.00 0.00 65 1016.6
20260902234025 32 0 0.0 0.0 0.00 0.00 0.00 64 1016.5
20260902233526 32 0 0.0 0.0 0.00 0.00 0.00 64 1016.6
20260902233051 32 0 0.0 0.0 0.00 0.00 0.00 64 1016.6
20260902232523 32 0 0.0 0.0 0.00 0.00 0.00 63 1016.6
20260902232023 33 0 0.0 0.0 0.00 0.00 0.00 63 1016.4
20260902231554 33 0 0.0 0.0 0.00 0.00 0.00 63 1016.5
20260902231021 33 0 0.0 0.0 0.00 0.00 0.00 63 1016.5
20260902230524 33 0 0.0 0.0 0.00 0.00 0.00 62 1016.5
20260902230041 33 0 0.0 0.0 0.00 0.00 0.00 62 1016.5
20260902225521 33 0 0.0 0.0 0.00 0.00 0.00 63 1016.5
20260902225024 34 0 0.0 0.0 0.00 0.00 0.00 61 1016.5
20260902224552 34 0 0.0 0.0 0.00 0.00 0.00 61 1016.5
20260902224023 34 0 0.0 0.0 0.00 0.00 0.00 61 1016.5
20260902223525 34 0 0.0 0.0 0.00 0.00 0.00 60 1016.6
20260902223044 35 0 0.0 0.0 0.00 0.00 0.00 59 1016.6
20260902222523 35 0 0.0 0.0 0.00 0.00 0.00 60 1016.5
20260902222024 35 0 0.0 0.0 0.00 0.00 0.00 58 1016.4
20260902221549 35 0 0.0 0.0 0.00 0.00 0.00 57 1016.5
20260902221027 35 0 0.0 0.0 0.00 0.00 0.00 57 1016.5
20260902220523 35 0 0.0 0.0 0.00 0.00 0.00 59 1016.4
20260902220045 35 0 0.0 0.0 0.00 0.00 0.00 58 1016.5
20260902215522 35 0 0.0 0.0 0.00 0.00 0.00 57 1016.5
20260902215025 35 0 0.0 0.0 0.00 0.00 0.00 57 1016.6
20260902214544 35 0 0.0 0.0 0.00 0.00 0.00 58 1016.6
20260902214024 35 0 0.0 0.0 0.00 0.00 0.00 58 1016.5
20260902213523 35 0 0.0 0.0 0.00 0.00 0.00 56 1016.6
20260902213052 35 0 0.0 0.0 0.00 0.00 0.00 56 1016.6
20260902212527 35 0 0.0 0.0 0.00 0.00 0.00 55 1016.6
20260902212021 36 0 0.0 0.0 0.00 0.00 0.00 50 1016.6
20260902211604 35 0 0.0 0.0 0.00 0.00 0.00 51 1016.5
20260902211028 35 0 0.0 0.0 0.00 0.00 0.00 52 1016.5
20260902210525 35 0 0.0 0.0 0.00 0.00 0.00 53 1016.6
20260902210046 35 0 0.0 0.0 0.00 0.00 0.00 56 1016.6
20260902205525 35 0 0.0 0.0 0.00 0.00 0.00 51 1016.7
20260902205021 36 0 0.0 0.0 0.00 0.00 0.00 49 1016.6
20260902204545 35 0 0.0 0.0 0.00 0.00 0.00 53 1016.6
20260902204020 35 0 0.0 0.0 0.00 0.00 0.00 52 1016.6
20260902203525 36 0 0.0 0.0 0.00 0.00 0.00 53 1016.7
20260902203043 35 0 0.0 0.0 0.00 0.00 0.00 55 1016.8
20260902202524 35 0 0.0 0.0 0.00 0.00 0.00 53 1016.8
20260902202024 36 0 0.0 0.0 0.00 0.00 0.00 54 1017.1
20260902201545 36 0 0.0 0.0 0.00 0.00 0.00 53 1017.0
20260902201025 35 0 0.0 0.0 0.00 0.00 0.00 53 1017.3
20260902200525 35 0 0.0 0.0 0.00 0.00 0.00 54 1017.3
20260902200046 35 0 0.0 0.0 0.00 0.00 0.00 55 1017.3
20260902195525 35 0 0.0 0.0 0.00 0.00 0.00 53 1017.3
20260902195022 35 0 0.0 0.0 0.00 0.00 0.00 55 1017.3
20260902194543 35 0 0.0 0.0 0.00 0.00 0.00 56 1017.3
20260902194026 35 0 0.0 0.0 0.00 0.00 0.00 57 1017.4
20260902193524 35 0 0.0 0.0 0.00 0.00 0.00 56 1017.4
20260902193048 35 0 0.0 0.0 0.00 0.00 0.00 53 1017.4
20260902192518 35 0 0.0 0.0 0.00 0.00 0.00 55 1017.4
20260902192024 36 0 0.0 0.0 0.00 0.00 0.00 53 1017.4
20260902191544 35 0 0.0 0.0 0.00 0.00 0.00 56 1017.5
20260902191026 35 0 0.0 0.0 0.00 0.00 0.00 53 1017.6
20260902190525 35 0 0.0 0.0 0.00 0.00 0.00 52 1017.6
20260902190044 36 0 0.0 0.0 0.00 0.00 0.00 56 1017.7
20260902185524 35 0 0.0 0.0 0.00 0.00 0.00 56 1017.8
20260902185023 35 0 0.0 0.0 0.00 0.00 0.00 54 1017.8
20260902184553 35 0 0.0 0.0 0.00 0.00 0.00 55 1017.9
20260902184023 35 0 0.0 0.0 0.00 0.00 0.00 55 1018.0
20260902183524 35 0 0.0 0.0 0.00 0.00 0.00 56 1018.0
20260902183048 35 0 0.0 0.0 0.00 0.00 0.00 54 1018.1
20260902182526 35 0 0.0 0.0 0.00 0.00 0.00 56 1018.1
20260902182025 35 0 0.0 0.0 0.00 0.00 0.00 54 1018.1
20260902181545 34 0 0.0 0.0 0.00 0.00 0.00 58 1018.1
20260902181025 34 0 0.0 0.0 0.00 0.00 0.00 61 1018.2
20260902180523 34 0 0.0 0.0 0.00 0.00 0.00 57 1018.2
20260902175526 34 0 0.0 0.0 0.00 0.00 0.00 57 1018.2
20260902175023 35 0 0.0 0.0 0.00 0.00 0.00 58 1018.3
20260902174544 35 0 0.0 0.0 0.00 0.00 0.00 57 1018.4
20260902174023 35 0 0.0 0.0 0.00 0.00 0.00 54 1018.4
20260902173526 35 0 0.0 0.0 0.00 0.00 0.00 55 1018.4
20260902173044 35 0 0.0 0.0 0.00 0.00 0.00 58 1018.4
20260902172522 35 0 0.0 0.0 0.00 0.00 0.00 53 1018.5
20260902172025 35 0 0.0 0.0 0.00 0.00 0.00 53 1018.6
20260902171548 34 0 0.0 0.0 0.00 0.00 0.00 58 1018.5
20260902171024 34 0 0.0 0.0 0.00 0.00 0.00 57 1018.5
20260902170523 34 0 0.0 0.0 0.00 0.00 0.00 60 1018.7
20260902170043 33 0 0.0 0.0 0.00 0.00 0.00 59 1018.7
20260902165524 33 0 0.0 0.0 0.00 0.00 0.00 59 1018.8
20260902165019 33 0 0.0 0.0 0.00 0.00 0.00 60 1018.9
20260902164544 33 0 0.0 0.0 0.00 0.00 0.00 60 1019.0
20260902164024 33 0 0.0 0.0 0.00 0.00 0.00 62 1019.0
20260902163524 33 0 0.0 0.0 0.00 0.00 0.00 65 1019.0
20260902163047 33 0 0.0 0.0 0.00 0.00 0.00 64 1018.9
20260902162522 33 0 0.0 0.0 0.00 0.00 0.00 62 1019.1
20260902162024 33 0 0.0 0.0 0.00 0.00 0.00 62 1019.1
20260902161552 33 0 0.0 0.0 0.00 0.00 0.00 65 1019.1
20260902161024 33 0 0.0 0.0 0.00 0.00 0.00 61 1019.0
20260902160523 33 0 0.0 0.0 0.00 0.00 0.00 63 1019.1
20260902160045 33 0 0.0 0.0 0.00 0.00 0.00 61 1019.1
20260902155526 33 0 0.0 0.0 0.00 0.00 0.00 60 1019.2
20260902155025 33 0 0.0 0.0 0.00 0.00 0.00 65 1019.1
20260902154543 34 0 0.0 0.0 0.00 0.00 0.00 59 1019.2
20260902154018 34 0 0.0 0.0 0.00 0.00 0.00 58 1019.3
20260902153525 34 0 0.0 0.0 0.00 0.00 0.00 60 1019.4
20260902153042 33 0 0.0 0.0 0.00 0.00 0.00 59 1019.4
20260902152522 34 0 0.0 0.0 0.00 0.00 0.00 61 1019.3
20260902152019 33 0 0.0 0.0 0.00 0.00 0.00 62 1019.3
20260902151543 33 0 0.0 0.0 0.00 0.00 0.00 63 1019.4
20260902151022 33 0 0.0 0.0 0.00 0.00 0.00 67 1019.3
20260902150523 33 0 0.0 0.0 0.00 0.00 0.00 66 1019.4
20260902150051 32 0 0.0 0.0 0.00 0.00 0.00 68 1019.3
20260902145522 32 0 0.0 0.0 0.00 0.00 0.00 67 1019.4
20260902145020 32 0 0.0 0.0 0.00 0.00 0.00 66 1019.4
20260902144542 32 0 0.0 0.0 0.00 0.00 0.00 68 1019.3
20260902144021 32 0 0.0 0.0 0.00 0.00 0.00 66 1019.3
20260902143523 32 0 0.0 0.0 0.00 0.00 0.00 68 1019.4
20260902143043 32 0 0.0 0.0 0.00 0.00 0.00 69 1019.3
20260902142521 32 0 0.0 0.0 0.00 0.00 0.00 70 1019.2
20260902142025 31 0 0.0 0.0 0.00 0.00 0.00 72 1019.2
20260902141542 31 0 0.0 0.0 0.00 0.00 0.00 72 1019.3
20260902141022 31 0 0.0 0.0 0.00 0.00 0.00 73 1019.2
20260902140525 31 0 0.0 0.0 0.00 0.00 0.00 74 1019.3
20260902140042 31 0 0.0 0.0 0.00 0.00 0.00 76 1019.3
20260902135520 30 0 0.0 0.0 0.00 0.00 0.00 77 1019.3
20260902135019 30 0 0.0 0.0 0.00 0.00 0.00 79 1019.4
20260902134546 30 0 0.0 0.0 0.00 0.00 0.00 79 1019.4
20260902134022 29 0 0.0 0.0 0.00 0.00 0.00 81 1019.3
20260902133523 28 0 0.0 0.0 0.00 0.00 0.00 83 1019.3
20260902133041 28 0 0.0 0.0 0.00 0.00 0.00 85 1019.4
20260902132521 28 0 0.0 0.0 0.00 0.00 0.00 89 1019.4
20260902132023 27 0 0.0 0.0 0.00 0.00 0.00 90 1019.4
20260902131542 27 0 0.0 0.0 0.00 0.00 0.00 91 1019.5
20260902131024 27 0 0.0 0.0 0.00 0.00 0.00 93 1019.5
20260902130526 26 0 0.0 0.0 0.00 0.00 0.00 93 1019.4
20260902130046 26 0 0.0 0.0 0.00 0.00 0.00 94 1019.5
20260902125524 26 0 0.0 0.0 0.00 0.00 0.00 95 1019.5
20260902125022 25 0 0.0 0.0 0.00 0.00 0.00 95 1019.6
20260902124543 25 0 0.0 0.0 0.00 0.00 0.00 95 1019.6
20260902124022 25 0 0.0 0.0 0.00 0.00 0.00 95 1019.6
20260902123523 25 0 0.0 0.0 0.00 0.00 0.00 95 1019.6
20260902123049 24 0 0.0 0.0 0.00 0.00 0.00 95 1019.6
20260902122525 24 0 0.0 0.0 0.00 0.00 0.00 94 1019.6
20260902122025 24 0 0.0 0.0 0.00 0.00 0.00 94 1019.7
20260902121541 23 0 0.0 0.0 0.00 0.00 0.00 94 1019.7
20260902121024 23 0 0.0 0.0 0.00 0.00 0.00 93 1019.6
20260902120524 23 0 0.0 0.0 0.00 0.00 0.00 93 1019.7
20260902120044 23 0 0.0 0.0 0.00 0.00 0.00 93 1019.7
20260902115525 23 0 0.0 0.0 0.00 0.00 0.00 92 1019.6
20260902115019 23 0 0.0 0.0 0.00 0.00 0.00 92 1019.6
20260902114544 23 0 0.0 0.0 0.00 0.00 0.00 92 1019.5
20260902114021 23 0 0.0 0.0 0.00 0.00 0.00 91 1019.4
20260902113518 23 0 0.0 0.0 0.00 0.00 0.00 91 1019.4
20260902113046 23 0 0.0 0.0 0.00 0.00 0.00 91 1019.4
20260902112525 23 0 0.0 0.0 0.00 0.00 0.00 91 1019.4
20260902112024 23 0 0.0 0.0 0.00 0.00 0.00 91 1019.4
20260902111547 23 0 0.0 0.0 0.00 0.00 0.00 91 1019.3
20260902111023 23 0 0.0 0.0 0.00 0.00 0.00 91 1019.3
20260902110528 23 0 0.0 0.0 0.00 0.00 0.00 90 1019.3
20260902110048 23 0 0.0 0.0 0.00 0.00 0.00 90 1019.2
20260902105521 23 0 0.0 0.0 0.00 0.00 0.00 90 1019.2
20260902105021 23 0 0.0 0.0 0.00 0.00 0.00 90 1019.1
20260902104552 23 0 0.0 0.0 0.00 0.00 0.00 90 1019.1
20260902104025 23 0 0.0 0.0 0.00 0.00 0.00 90 1019.1
20260902103528 23 0 0.0 0.0 0.00 0.00 0.00 90 1019.0
20260902103043 23 0 0.0 0.0 0.00 0.00 0.00 90 1019.1
20260902102524 23 0 0.0 0.0 0.00 0.00 0.00 90 1019.1
20260902102025 23 0 0.0 0.0 0.00 0.00 0.00 90 1019.1
20260902101543 23 0 0.0 0.0 0.00 0.00 0.00 90 1019.0
20260902101019 23 0 0.0 0.0 0.00 0.00 0.00 90 1018.9
20260902100518 23 0 0.0 0.0 0.00 0.00 0.00 89 1018.9
20260902095521 23 0 0.0 0.0 0.00 0.00 0.00 89 1018.8
20260902095021 23 0 0.0 0.0 0.00 0.00 0.00 89 1018.8
20260902094544 23 0 0.0 0.0 0.00 0.00 0.00 89 1018.9
20260902094024 23 0 0.0 0.0 0.00 0.00 0.00 89 1018.9
20260902093521 23 0 0.0 0.0 0.00 0.00 0.00 89 1018.8
20260902093046 23 0 0.0 0.0 0.00 0.00 0.00 89 1018.8
20260902092523 23 0 0.0 0.0 0.00 0.00 0.00 89 1018.8
20260902092019 23 0 0.0 0.0 0.00 0.00 0.00 89 1018.7
20260902091542 23 0 0.0 0.0 0.00 0.00 0.00 89 1018.8
20260902091019 23 0 0.0 0.0 0.00 0.00 0.00 89 1018.7
20260902090519 23 0 0.0 0.0 0.00 0.00 0.00 89 1018.6
20260902090043 23 0 0.0 0.0 0.00 0.00 0.00 89 1018.6
20260902085521 23 0 0.0 0.0 0.00 0.00 0.00 88 1018.6
20260902085024 24 0 0.0 0.0 0.00 0.00 0.00 88 1018.5
20260902084549 24 0 0.0 0.0 0.00 0.00 0.00 88 1018.6
20260902084024 24 0 0.0 0.0 0.00 0.00 0.00 88 1018.6
20260902083522 24 0 0.0 0.0 0.00 0.00 0.00 88 1018.5
20260902083046 24 0 0.0 0.0 0.00 0.00 0.00 88 1018.5
20260902082521 24 0 0.0 0.0 0.00 0.00 0.00 88 1018.5
20260902082019 24 0 0.0 0.0 0.00 0.00 0.00 88 1018.4
20260902081549 24 0 0.0 0.0 0.00 0.00 0.00 88 1018.3
20260902081019 24 0 0.0 0.0 0.00 0.00 0.00 87 1018.3
20260902080519 24 0 0.0 0.0 0.00 0.00 0.00 87 1018.2
20260902080042 24 0 0.0 0.0 0.00 0.00 0.00 87 1018.3
20260902075521 24 0 0.0 0.0 0.00 0.00 0.00 87 1018.3
20260902075021 24 0 0.0 0.0 0.00 0.00 0.00 87 1018.4
20260902074541 24 0 0.0 0.0 0.00 0.00 0.00 87 1018.3
20260902074020 24 0 0.0 0.0 0.00 0.00 0.00 87 1018.3
20260902073524 24 0 0.0 0.0 0.00 0.00 0.00 86 1018.3
20260902073050 25 0 0.0 0.0 0.00 0.00 0.00 86 1018.3
20260902072524 25 0 0.0 0.0 0.00 0.00 0.00 86 1018.3
20260902072021 25 0 0.0 0.0 0.00 0.00 0.00 86 1018.3
20260902071542 25 0 0.0 0.0 0.00 0.00 0.00 86 1018.3
20260902071019 25 0 0.0 0.0 0.00 0.00 0.00 85 1018.3
20260902070522 25 0 0.0 0.0 0.00 0.00 0.00 85 1018.6
20260902070046 25 0 0.0 0.0 0.00 0.00 0.00 85 1018.6
20260902065523 25 0 0.0 0.0 0.00 0.00 0.00 85 1018.5
20260902065025 25 0 0.0 0.0 0.00 0.00 0.00 85 1018.5
20260902064549 25 0 0.0 0.0 0.00 0.00 0.00 85 1018.6
20260902064024 25 0 0.0 0.0 0.00 0.00 0.00 84 1018.6
20260902063523 25 0 0.0 0.0 0.00 0.00 0.00 84 1018.6
20260902063050 25 0 0.0 0.0 0.00 0.00 0.00 84 1018.6
20260902062524 25 0 0.0 0.0 0.00 0.00 0.00 84 1018.6
20260902062019 25 0 0.0 0.0 0.00 0.00 0.00 84 1018.5
20260902061556 25 0 0.0 0.0 0.00 0.00 0.00 84 1018.5
20260902061021 25 0 0.0 0.0 0.00 0.00 0.00 84 1018.6
20260902060522 25 0 0.0 0.0 0.00 0.00 0.00 84 1018.6
20260902060042 25 0 0.0 0.0 0.00 0.00 0.00 84 1018.6
20260902055524 26 0 0.0 0.0 0.00 0.00 0.00 84 1018.7
20260902055021 26 0 0.0 0.0 0.00 0.00 0.00 83 1018.8
20260902054550 26 0 0.0 0.0 0.00 0.00 0.00 83 1018.8
20260902054026 26 0 0.0 0.0 0.00 0.00 0.00 83 1018.7
20260902053521 26 0 0.0 0.0 0.00 0.00 0.00 83 1018.7
20260902053047 26 0 0.0 0.0 0.00 0.00 0.00 83 1018.8
20260902052527 26 0 0.0 0.0 0.00 0.00 0.00 83 1018.8
20260902052023 26 0 0.0 0.0 0.00 0.00 0.00 83 1018.8
20260902051544 26 0 0.0 0.0 0.00 0.00 0.00 83 1018.7
20260902051021 26 0 0.0 0.0 0.00 0.00 0.00 83 1018.7
20260902050526 26 0 0.0 0.0 0.00 0.00 0.00 83 1018.7
20260902050042 26 0 0.0 0.0 0.00 0.00 0.00 84 1018.6
20260902045521 26 0 0.0 0.0 0.00 0.00 0.00 83 1018.7
20260902045024 26 0 0.0 0.0 0.00 0.00 0.00 83 1018.6
20260902044544 26 0 0.0 0.0 0.00 0.00 0.00 83 1018.7
20260902044021 26 0 0.0 0.0 0.00 0.00 0.00 83 1018.6
20260902043520 26 0 0.0 0.0 0.00 0.00 0.00 83 1018.6
20260902043044 27 0 0.0 0.0 0.00 0.00 0.00 83 1018.6
20260902042523 26 0 0.0 0.0 0.00 0.00 0.00 83 1018.7
20260902042023 27 0 0.0 0.0 0.00 0.00 0.00 82 1018.7
20260902041544 27 0 0.0 0.0 0.00 0.00 0.00 82 1018.6
20260902041022 27 0 0.0 0.0 0.00 0.00 0.00 82 1018.5
20260902040524 27 0 0.0 0.0 0.00 0.00 0.00 81 1018.5
20260902040044 27 0 0.0 0.0 0.00 0.00 0.00 81 1018.4
20260902035524 27 0 0.0 0.0 0.00 0.00 0.00 80 1018.5
20260902035021 27 0 0.0 0.0 0.00 0.00 0.00 80 1018.4
20260902034543 27 0 0.0 0.0 0.00 0.00 0.00 80 1018.4
20260902034024 27 0 0.0 0.0 0.00 0.00 0.00 80 1018.3
20260902033525 27 0 0.0 0.0 0.00 0.00 0.00 79 1018.3
20260902033046 27 0 0.0 0.0 0.00 0.00 0.00 79 1018.4
20260902032525 27 0 0.0 0.0 0.00 0.00 0.00 78 1018.2
20260902032025 27 0 0.0 0.0 0.00 0.00 0.00 78 1018.2
20260902031546 27 0 0.0 0.0 0.00 0.00 0.00 78 1018.1
20260902031019 27 0 0.0 0.0 0.00 0.00 0.00 78 1018.2
20260902030523 27 0 0.0 0.0 0.00 0.00 0.00 78 1018.1
20260902030043 27 0 0.0 0.0 0.00 0.00 0.00 77 1018.2
20260902025521 28 0 0.0 0.0 0.00 0.00 0.00 77 1018.2
20260902025025 28 0 0.0 0.0 0.00 0.00 0.00 77 1018.2
20260902024543 28 0 0.0 0.0 0.00 0.00 0.00 77 1018.2
20260902024024 28 0 0.0 0.0 0.00 0.00 0.00 76 1018.2
20260902023525 28 0 0.0 0.0 0.00 0.00 0.00 76 1018.2
20260902023053 28 0 0.0 0.0 0.00 0.00 0.00 76 1018.1
20260902022523 28 0 0.0 0.0 0.00 0.00 0.00 76 1018.2
20260902022025 28 0 0.0 0.0 0.00 0.00 0.00 76 1018.3
20260902021544 28 0 0.0 0.0 0.00 0.00 0.00 76 1018.2
20260902021021 28 0 0.0 0.0 0.00 0.00 0.00 75 1018.3
20260902020525 28 0 0.0 0.0 0.00 0.00 0.00 75 1018.2
20260902020045 28 0 0.0 0.0 0.00 0.00 0.00 75 1018.1
20260902015525 29 0 0.0 0.0 0.00 0.00 0.00 74 1018.0
20260902015025 29 0 0.0 0.0 0.00 0.00 0.00 74 1018.1
20260902014544 29 0 0.0 0.0 0.00 0.00 0.00 74 1018.1
20260902014024 29 0 0.0 0.0 0.00 0.00 0.00 73 1018.0
20260902013524 29 0 0.0 0.0 0.00 0.00 0.00 73 1018.0
20260902013044 29 0 0.0 0.0 0.00 0.00 0.00 73 1017.8
20260902012527 30 0 0.0 0.0 0.00 0.00 0.00 72 1017.8
20260902012024 30 0 0.0 0.0 0.00 0.00 0.00 72 1017.7
20260902011549 30 0 0.0 0.0 0.00 0.00 0.00 72 1017.6
20260902011024 30 0 0.0 0.0 0.00 0.00 0.00 71 1017.6
20260902010528 30 0 0.0 0.0 0.00 0.00 0.00 71 1017.6
20260902010043 30 0 0.0 0.0 0.00 0.00 0.00 70 1017.4
20260902005525 30 0 0.0 0.0 0.00 0.00 0.00 70 1017.4
20260902005027 30 0 0.0 0.0 0.00 0.00 0.00 70 1017.3
20260902004543 30 0 0.0 0.0 0.00 0.00 0.00 69 1017.3
20260902004024 30 0 0.0 0.0 0.00 0.00 0.00 69 1017.3
20260902003524 31 0 0.0 0.0 0.00 0.00 0.00 68 1017.1
20260902003048 31 0 0.0 0.0 0.00 0.00 0.00 67 1017.1
20260902002523 31 0 0.0 0.0 0.00 0.00 0.00 66 1017.1
20260902002026 31 0 0.0 0.0 0.00 0.00 0.00 66 1017.0
20260902001545 31 0 0.0 0.0 0.00 0.00 0.00 65 1017.0